Starlink 11583

operational
NORAD ID: 62991 Int'l Des: 2025-031 Owner: SPXS Country: US Constellation: starlink
LEOCIRCULAR

About Starlink 11583

Description loading...

Live Position

Loading 3D Globe...

Upcoming Passes

Altitude History

Altitude vs Time

uPlot chart will show altitude changes over time

Two-Line Element Set

1 62991U 25031L 25303.75165137 .00412893 00000-0 30665-2 0 9995
2 62991 42.9983 64.9409 0001198 292.5343 67.5398 15.70820379 42313
Epoch: Oct 30, 2025 • Age: 14 hours

Current Status

Altitude 355.6 km
Velocity 7.70 km/s
Sub-Earth Point 27.10°N, 64.58°W
Launch Date Feb 11, 2025
Age 0.7 years
Type internet

Technical Details

Classification Payload
Mass 960.00 kg
Dry Mass 910.00 kg
Total Mass 960.00 kg
Length 0.30 m
Diameter 4.10 m
Span 29.00 m
Shape Box + pan
Manufacturer SPXS
Bus Type Starlink V2MD
Phase Status In Orbit
Owner/State SPXS/US

Large Constellations

Loading constellations...